FDX22 KATL-KLAX

Flight info

Callsign FDX22
Flight time 4h 24m
Altitude 30000
Route NASSA2 YAALL J14 PNH ACH ABQ J78 DRK GABBL HLYWD1
Aircraft B77L/H-SDE1E2E3FGHIJ2J3J4J5M1RWXY/LB1D1

Departure

Time 2026-05-06 01:17
Airport Hartsfield Jackson Atlanta International Airport (KATL)

Arrival

Time 2026-05-06 05:41
Airport Los Angeles International Airport (KLAX)
Time Latitude Longitude Altitude Speed Heading
2026-05-06 01:08 33.65420 -84.41691 1011 ft 0 kts 121°
2026-05-06 01:09 33.65420 -84.41690 1011 ft 1 kts 121°
2026-05-06 01:09 33.65413 -84.41677 1011 ft 2 kts 122°
2026-05-06 01:10 33.65406 -84.41663 1011 ft 2 kts 122°
2026-05-06 01:10 33.65399 -84.41649 1011 ft 2 kts 122°
2026-05-06 01:10 33.65391 -84.41636 1011 ft 2 kts 122°
2026-05-06 01:10 33.65384 -84.41622 1011 ft 2 kts 122°
2026-05-06 01:11 33.65377 -84.41608 1011 ft 2 kts 122°
2026-05-06 01:11 33.65368 -84.41591 1011 ft 4 kts 122°
2026-05-06 01:11 33.65352 -84.41559 1011 ft 5 kts 122°
2026-05-06 01:11 33.65335 -84.41528 1011 ft 5 kts 122°
2026-05-06 01:12 33.65318 -84.41496 1011 ft 5 kts 122°
2026-05-06 01:12 33.65272 -84.41458 1011 ft 15 kts 173°
2026-05-06 01:12 33.65164 -84.41448 1011 ft 16 kts 163°
2026-05-06 01:12 33.65119 -84.41341 1011 ft 16 kts 85°
2026-05-06 01:13 33.65120 -84.41244 1011 ft 7 kts 90°
2026-05-06 01:13 33.65120 -84.41189 1010 ft 7 kts 90°
2026-05-06 01:13 33.65119 -84.41133 1011 ft 7 kts 90°
2026-05-06 01:13 33.65119 -84.41073 1011 ft 8 kts 90°
2026-05-06 01:14 33.65063 -84.40967 1011 ft 9 kts 168°
2026-05-06 01:14 33.64978 -84.40962 1011 ft 17 kts 181°
2026-05-06 01:14 33.64858 -84.40927 1010 ft 19 kts 127°
2026-05-06 01:15 33.64846 -84.40754 1011 ft 23 kts 91°
2026-05-06 01:15 33.64842 -84.40628 1011 ft 11 kts 103°
2026-05-06 01:15 33.64775 -84.40570 1010 ft 15 kts 174°
2026-05-06 01:15 33.64681 -84.40623 1008 ft 16 kts 265°
2026-05-06 01:16 33.64680 -84.40657 1008 ft 0 kts 268°
2026-05-06 01:16 33.64680 -84.40778 1009 ft 39 kts 269°
2026-05-06 01:16 33.64679 -84.41533 1013 ft 140 kts 270°
2026-05-06 01:17 33.64687 -84.43029 1253 ft 204 kts 270°
2026-05-06 01:17 33.64762 -84.44726 2189 ft 194 kts 273°
2026-05-06 01:17 33.65046 -84.46256 2944 ft 191 kts 280°
2026-05-06 01:17 33.65562 -84.47766 3459 ft 198 kts 295°
2026-05-06 01:18 33.66161 -84.49262 3706 ft 208 kts 275°
2026-05-06 01:18 33.66147 -84.51034 3793 ft 222 kts 262°
2026-05-06 01:18 33.66218 -84.53004 4035 ft 250 kts 272°
2026-05-06 01:18 33.66492 -84.55120 4657 ft 260 kts 276°
2026-05-06 01:19 33.66840 -84.57244 5468 ft 261 kts 277°
2026-05-06 01:19 33.67202 -84.59358 6479 ft 254 kts 277°
2026-05-06 01:19 33.67549 -84.61449 7256 ft 257 kts 278°
2026-05-06 01:19 33.67898 -84.63542 7976 ft 260 kts 278°
2026-05-06 01:20 33.68257 -84.65684 8775 ft 261 kts 279°
2026-05-06 01:20 33.68620 -84.67834 9544 ft 263 kts 279°
2026-05-06 01:20 33.68986 -84.69993 10233 ft 268 kts 279°
2026-05-06 01:20 33.69362 -84.72232 10553 ft 288 kts 280°
2026-05-06 01:21 33.69777 -84.74703 10722 ft 313 kts 280°
2026-05-06 01:21 33.70114 -84.77381 10893 ft 335 kts 273°
2026-05-06 01:21 33.70164 -84.80245 11388 ft 348 kts 269°
2026-05-06 01:21 33.70118 -84.83172 12086 ft 356 kts 269°
2026-05-06 01:22 33.70061 -84.86173 12986 ft 360 kts 270°
2026-05-06 01:22 33.70015 -84.89203 13889 ft 363 kts 270°
2026-05-06 01:22 33.69984 -84.92223 14675 ft 367 kts 271°
2026-05-06 01:22 33.69963 -84.95316 15491 ft 369 kts 271°
2026-05-06 01:23 33.69949 -84.98418 16311 ft 372 kts 271°
2026-05-06 01:23 33.69938 -85.01506 17084 ft 376 kts 271°
2026-05-06 01:23 33.69928 -85.04668 17860 ft 379 kts 271°
2026-05-06 01:23 33.69918 -85.07859 18634 ft 381 kts 271°
2026-05-06 01:24 33.69907 -85.11010 19290 ft 383 kts 271°
2026-05-06 01:24 33.69895 -85.14246 19939 ft 387 kts 271°
2026-05-06 01:24 33.69883 -85.17462 20579 ft 390 kts 271°
2026-05-06 01:24 33.69869 -85.20747 21211 ft 393 kts 271°
2026-05-06 01:25 33.69851 -85.24046 21823 ft 396 kts 271°
2026-05-06 01:25 33.69820 -85.27375 22410 ft 400 kts 271°
2026-05-06 01:25 33.69782 -85.30738 23004 ft 403 kts 271°
2026-05-06 01:25 33.69743 -85.34075 23517 ft 406 kts 271°
2026-05-06 01:26 33.69701 -85.37492 24012 ft 409 kts 271°
2026-05-06 01:26 33.69660 -85.40928 24535 ft 410 kts 271°
2026-05-06 01:26 33.69618 -85.44334 25079 ft 410 kts 271°
2026-05-06 01:26 33.69575 -85.47769 25654 ft 410 kts 271°
2026-05-06 01:27 33.69531 -85.51211 26170 ft 412 kts 272°
2026-05-06 01:27 33.69489 -85.54625 26627 ft 415 kts 272°
2026-05-06 01:27 33.69468 -85.56308 26868 ft 415 kts 272°
2026-05-06 01:27 33.69423 -85.59793 27356 ft 417 kts 272°
2026-05-06 01:28 33.69377 -85.63255 27824 ft 419 kts 272°
2026-05-06 01:28 33.69329 -85.66793 28289 ft 421 kts 272°
2026-05-06 01:28 33.69280 -85.70296 28736 ft 423 kts 272°
2026-05-06 01:28 33.69229 -85.73821 29165 ft 425 kts 272°
2026-05-06 01:29 33.69178 -85.77388 29576 ft 427 kts 272°
2026-05-06 01:29 33.69125 -85.80945 29988 ft 429 kts 272°
2026-05-06 01:29 33.69071 -85.84542 30357 ft 430 kts 272°
2026-05-06 01:29 33.69014 -85.88138 30836 ft 427 kts 272°
2026-05-06 01:30 33.68958 -85.91692 31368 ft 424 kts 272°
2026-05-06 01:30 33.68902 -85.95191 31857 ft 421 kts 272°
2026-05-06 01:30 33.68846 -85.98711 32317 ft 419 kts 273°
2026-05-06 01:30 33.68788 -86.02203 32728 ft 418 kts 273°
2026-05-06 01:31 33.68774 -86.05661 33147 ft 414 kts 275°
2026-05-06 01:31 33.68957 -86.09104 33589 ft 411 kts 278°
2026-05-06 01:31 33.69242 -86.12519 33981 ft 409 kts 279°
2026-05-06 01:31 33.69553 -86.15890 33970 ft 412 kts 279°
2026-05-06 01:32 33.70165 -86.22718 33976 ft 407 kts 278°
2026-05-06 01:32 33.70716 -86.29450 34028 ft 407 kts 278°
2026-05-06 01:33 33.70981 -86.32842 34385 ft 404 kts 278°
2026-05-06 01:33 33.71235 -86.36141 34949 ft 396 kts 278°
2026-05-06 01:33 33.71484 -86.39409 35507 ft 390 kts 278°
2026-05-06 01:33 33.71729 -86.42636 35931 ft 386 kts 278°
2026-05-06 01:34 33.72224 -86.49136 35971 ft 390 kts 278°
2026-05-06 01:34 33.72710 -86.55588 35979 ft 390 kts 278°
2026-05-06 01:35 33.73200 -86.62126 35989 ft 395 kts 278°
2026-05-06 01:35 33.73687 -86.68687 35983 ft 397 kts 277°
2026-05-06 01:36 33.74174 -86.75301 35976 ft 398 kts 277°
2026-05-06 01:36 33.74660 -86.81956 35981 ft 398 kts 277°
2026-05-06 01:37 33.75140 -86.88574 35957 ft 398 kts 277°
2026-05-06 01:37 33.75615 -86.95174 35911 ft 398 kts 277°
2026-05-06 01:38 33.76090 -87.01806 35937 ft 397 kts 277°
2026-05-06 01:38 33.76557 -87.08400 35935 ft 396 kts 277°
2026-05-06 01:39 33.77021 -87.14985 35912 ft 395 kts 277°
2026-05-06 01:39 33.77477 -87.21510 35936 ft 394 kts 277°
2026-05-06 01:40 33.77934 -87.28098 35938 ft 394 kts 277°
2026-05-06 01:40 33.78386 -87.34657 35922 ft 394 kts 276°
2026-05-06 01:41 33.78833 -87.41195 35931 ft 394 kts 276°
2026-05-06 01:41 33.79288 -87.47782 35933 ft 395 kts 278°
2026-05-06 01:42 33.80298 -87.53600 35930 ft 394 kts 284°
2026-05-06 01:42 33.81702 -87.59978 35918 ft 395 kts 284°
2026-05-06 01:43 33.83094 -87.66402 35911 ft 396 kts 284°
2026-05-06 01:43 33.84450 -87.72832 35900 ft 397 kts 284°
2026-05-06 01:44 33.85786 -87.79266 35899 ft 397 kts 284°
2026-05-06 01:44 33.87110 -87.85688 35900 ft 397 kts 284°
2026-05-06 01:45 33.88433 -87.92121 35898 ft 396 kts 283°
2026-05-06 01:45 33.89756 -87.98568 35898 ft 396 kts 284°
2026-05-06 01:46 33.91069 -88.04987 35890 ft 396 kts 283°
2026-05-06 01:46 33.92388 -88.11455 35889 ft 395 kts 283°
2026-05-06 01:47 33.93687 -88.17838 35891 ft 395 kts 283°
2026-05-06 01:47 33.94988 -88.24254 35893 ft 395 kts 283°
2026-05-06 01:48 33.96290 -88.30691 35893 ft 393 kts 283°
2026-05-06 01:48 33.97579 -88.37086 35885 ft 392 kts 283°
2026-05-06 01:49 33.98862 -88.43465 35885 ft 392 kts 283°
2026-05-06 01:49 34.00142 -88.49845 35899 ft 391 kts 283°
2026-05-06 01:50 34.01415 -88.56214 35887 ft 390 kts 283°
2026-05-06 01:50 34.02673 -88.62526 35895 ft 389 kts 283°
2026-05-06 01:51 34.03937 -88.68885 35892 ft 389 kts 283°
2026-05-06 01:51 34.05196 -88.75236 35888 ft 389 kts 283°
2026-05-06 01:52 34.06443 -88.81544 35895 ft 389 kts 282°
2026-05-06 01:52 34.07694 -88.87889 35899 ft 389 kts 282°
2026-05-06 01:53 34.08942 -88.94243 35888 ft 389 kts 282°
2026-05-06 01:53 34.10188 -89.00606 35889 ft 390 kts 282°
2026-05-06 01:54 34.11431 -89.06966 35885 ft 390 kts 282°
2026-05-06 01:54 34.12673 -89.13343 35876 ft 390 kts 282°
2026-05-06 01:55 34.13909 -89.19708 35874 ft 390 kts 282°
2026-05-06 01:55 34.15144 -89.26083 35867 ft 390 kts 282°
2026-05-06 01:56 34.16377 -89.32473 35873 ft 389 kts 282°
2026-05-06 01:56 34.17600 -89.38830 35876 ft 389 kts 282°
2026-05-06 01:57 34.18819 -89.45176 35879 ft 390 kts 282°
2026-05-06 01:57 34.20044 -89.51565 35881 ft 390 kts 282°
2026-05-06 01:58 34.21511 -89.57874 35928 ft 391 kts 284°
2026-05-06 01:58 34.23053 -89.64150 35884 ft 391 kts 284°
2026-05-06 01:59 34.24598 -89.70471 35844 ft 390 kts 284°
2026-05-06 01:59 34.26116 -89.76726 35841 ft 389 kts 284°
2026-05-06 02:00 34.27635 -89.83012 35844 ft 389 kts 284°
2026-05-06 02:00 34.29148 -89.89288 35841 ft 388 kts 284°
2026-05-06 02:01 34.30654 -89.95552 35842 ft 388 kts 284°
2026-05-06 02:01 34.32150 -90.01789 35822 ft 388 kts 284°
2026-05-06 02:02 34.33656 -90.08078 35835 ft 388 kts 284°
2026-05-06 02:02 34.35150 -90.14342 35838 ft 388 kts 284°
2026-05-06 02:03 34.36637 -90.20606 35836 ft 388 kts 284°
2026-05-06 02:03 34.38118 -90.26859 35840 ft 388 kts 284°
2026-05-06 02:04 34.39608 -90.33166 35842 ft 389 kts 284°
2026-05-06 02:04 34.41086 -90.39438 35846 ft 389 kts 284°
2026-05-06 02:05 34.42567 -90.45738 35849 ft 389 kts 284°
2026-05-06 02:05 34.44050 -90.52062 35846 ft 390 kts 283°
2026-05-06 02:06 34.45530 -90.58391 35818 ft 390 kts 283°
2026-05-06 02:06 34.46999 -90.64689 35814 ft 390 kts 283°
2026-05-06 02:07 34.48474 -90.71027 35817 ft 390 kts 283°
2026-05-06 02:07 34.49945 -90.77364 35787 ft 390 kts 283°
2026-05-06 02:08 34.51412 -90.83698 35807 ft 390 kts 283°
2026-05-06 02:08 34.52867 -90.90003 35806 ft 390 kts 283°
2026-05-06 02:09 34.54328 -90.96345 35806 ft 390 kts 283°
2026-05-06 02:09 34.55786 -91.02695 35805 ft 391 kts 283°
2026-05-06 02:10 34.57243 -91.09051 35803 ft 391 kts 283°
2026-05-06 02:10 34.58697 -91.15414 35811 ft 391 kts 283°
2026-05-06 02:11 34.60147 -91.21774 35809 ft 391 kts 283°
2026-05-06 02:11 34.61593 -91.28138 35809 ft 390 kts 283°
2026-05-06 02:12 34.63033 -91.34492 35813 ft 390 kts 283°
2026-05-06 02:12 34.64467 -91.40833 35816 ft 390 kts 283°
2026-05-06 02:13 34.65893 -91.47158 35822 ft 389 kts 282°
2026-05-06 02:13 34.67321 -91.53505 35827 ft 389 kts 282°
2026-05-06 02:14 34.68744 -91.59847 35823 ft 389 kts 282°
2026-05-06 02:14 34.70164 -91.66193 35820 ft 389 kts 282°
2026-05-06 02:15 34.71586 -91.72566 35813 ft 389 kts 282°
2026-05-06 02:15 34.72998 -91.78913 35810 ft 390 kts 282°
2026-05-06 02:16 34.74402 -91.85237 35801 ft 389 kts 282°
2026-05-06 02:16 34.75806 -91.91580 35802 ft 389 kts 282°
2026-05-06 02:17 34.77211 -91.97947 35792 ft 388 kts 282°
2026-05-06 02:17 34.78602 -92.04265 35793 ft 388 kts 282°
2026-05-06 02:18 34.79990 -92.10585 35802 ft 387 kts 281°
2026-05-06 02:18 34.81165 -92.16986 35810 ft 385 kts 276°
2026-05-06 02:19 34.81765 -92.23447 35809 ft 384 kts 275°
2026-05-06 02:19 34.82340 -92.29868 35836 ft 384 kts 274°
2026-05-06 02:20 34.83210 -92.39579 35805 ft 384 kts 274°
2026-05-06 02:21 34.83785 -92.46017 35786 ft 383 kts 274°
2026-05-06 02:21 34.84261 -92.51368 35788 ft 383 kts 274°
2026-05-06 02:22 34.84833 -92.57842 35779 ft 383 kts 274°
2026-05-06 02:22 34.85397 -92.64258 35792 ft 382 kts 274°
2026-05-06 02:23 34.85959 -92.70677 35793 ft 382 kts 274°
2026-05-06 02:23 34.86517 -92.77114 35782 ft 381 kts 274°
2026-05-06 02:24 34.87070 -92.83524 35764 ft 380 kts 274°
2026-05-06 02:24 34.87619 -92.89932 35762 ft 380 kts 274°
2026-05-06 02:25 34.88164 -92.96329 35764 ft 380 kts 273°
2026-05-06 02:25 34.88706 -93.02735 35761 ft 380 kts 273°
2026-05-06 02:26 34.89241 -93.09099 35769 ft 380 kts 273°
2026-05-06 02:26 34.89780 -93.15538 35755 ft 380 kts 273°
2026-05-06 02:27 34.90311 -93.21937 35748 ft 380 kts 273°
2026-05-06 02:27 34.90837 -93.28312 35744 ft 380 kts 273°
2026-05-06 02:28 34.91362 -93.34709 35739 ft 380 kts 273°
2026-05-06 02:28 34.91886 -93.41145 35747 ft 380 kts 273°
2026-05-06 02:29 34.92405 -93.47555 35746 ft 380 kts 273°
2026-05-06 02:29 34.92920 -93.53968 35751 ft 380 kts 273°
2026-05-06 02:30 34.93429 -93.60335 35748 ft 380 kts 272°
2026-05-06 02:30 34.93940 -93.66779 35770 ft 380 kts 272°
2026-05-06 02:31 34.94443 -93.73163 35750 ft 380 kts 272°
2026-05-06 02:31 34.94944 -93.79562 35743 ft 380 kts 272°
2026-05-06 02:32 34.95444 -93.85997 35754 ft 380 kts 272°
2026-05-06 02:32 34.95937 -93.92395 35751 ft 380 kts 272°
2026-05-06 02:33 34.96428 -93.98794 35766 ft 379 kts 272°
2026-05-06 02:33 34.96591 -94.00935 35766 ft 380 kts 272°
2026-05-06 02:34 34.97400 -94.11616 35762 ft 380 kts 272°
2026-05-06 02:34 34.97881 -94.18020 35797 ft 379 kts 272°
2026-05-06 02:35 34.98356 -94.24423 35785 ft 381 kts 272°
2026-05-06 02:35 34.98834 -94.30865 35829 ft 382 kts 272°
2026-05-06 02:36 34.99309 -94.37332 35830 ft 382 kts 272°
2026-05-06 02:36 34.99780 -94.43787 35843 ft 382 kts 272°
2026-05-06 02:37 35.00246 -94.50231 35850 ft 382 kts 271°
2026-05-06 02:37 35.00709 -94.56669 35850 ft 382 kts 271°
2026-05-06 02:38 35.01169 -94.63118 35850 ft 382 kts 271°
2026-05-06 02:38 35.01726 -94.69590 35828 ft 383 kts 275°
2026-05-06 02:39 35.02597 -94.75981 35844 ft 383 kts 275°
2026-05-06 02:39 35.03472 -94.82366 35834 ft 383 kts 275°
2026-05-06 02:40 35.04342 -94.88772 35852 ft 382 kts 275°
2026-05-06 02:40 35.05202 -94.95164 35851 ft 382 kts 275°
2026-05-06 02:41 35.06061 -95.01574 35868 ft 382 kts 275°
2026-05-06 02:41 35.06918 -95.08001 35873 ft 381 kts 275°
2026-05-06 02:42 35.07764 -95.14376 35871 ft 380 kts 274°
2026-05-06 02:42 35.08604 -95.20733 35877 ft 380 kts 274°
2026-05-06 02:43 35.09440 -95.27085 35876 ft 379 kts 274°
2026-05-06 02:43 35.10277 -95.33467 35882 ft 379 kts 274°
2026-05-06 02:44 35.11105 -95.39811 35885 ft 379 kts 274°
2026-05-06 02:44 35.11933 -95.46170 35882 ft 379 kts 274°
2026-05-06 02:45 35.12717 -95.52529 35912 ft 380 kts 274°
2026-05-06 02:45 35.13472 -95.58898 35902 ft 380 kts 274°
2026-05-06 02:46 35.14232 -95.65310 35895 ft 380 kts 274°
2026-05-06 02:46 35.14992 -95.71708 35902 ft 380 kts 273°
2026-05-06 02:47 35.15745 -95.78073 35901 ft 380 kts 273°
2026-05-06 02:47 35.16495 -95.84443 35905 ft 380 kts 273°
2026-05-06 02:48 35.17244 -95.90842 35902 ft 379 kts 273°
2026-05-06 02:48 35.17988 -95.97221 35908 ft 379 kts 273°
2026-05-06 02:49 35.18727 -96.03582 35912 ft 379 kts 273°
2026-05-06 02:49 35.19468 -96.09994 35924 ft 379 kts 273°
2026-05-06 02:50 35.20203 -96.16381 35920 ft 379 kts 273°
2026-05-06 02:50 35.20934 -96.22769 35913 ft 380 kts 273°
2026-05-06 02:51 35.21662 -96.29156 35918 ft 379 kts 273°
2026-05-06 02:51 35.22382 -96.35510 35919 ft 379 kts 273°
2026-05-06 02:52 35.23107 -96.41931 35909 ft 379 kts 273°
2026-05-06 02:52 35.23824 -96.48308 35922 ft 379 kts 272°
2026-05-06 02:53 35.24537 -96.54694 35910 ft 379 kts 272°
2026-05-06 02:53 35.25247 -96.61082 35934 ft 380 kts 272°
2026-05-06 02:54 35.25957 -96.67498 35935 ft 380 kts 272°
2026-05-06 02:54 35.26661 -96.73882 35935 ft 380 kts 272°
2026-05-06 02:55 35.27365 -96.80305 35937 ft 379 kts 272°
2026-05-06 02:55 35.28061 -96.86685 35950 ft 380 kts 272°
2026-05-06 02:56 35.28753 -96.93066 35953 ft 380 kts 272°
2026-05-06 02:56 35.29449 -96.99509 35955 ft 380 kts 272°
2026-05-06 02:57 35.30134 -97.05887 35959 ft 381 kts 272°
2026-05-06 02:57 35.30824 -97.12348 35945 ft 381 kts 272°
2026-05-06 02:58 35.31505 -97.18749 35925 ft 381 kts 272°
2026-05-06 02:58 35.32190 -97.25224 35924 ft 382 kts 272°
2026-05-06 02:59 35.32867 -97.31660 35922 ft 382 kts 272°
2026-05-06 02:59 35.33542 -97.38102 35926 ft 382 kts 272°
2026-05-06 03:00 35.34213 -97.44540 35920 ft 381 kts 272°
2026-05-06 03:00 35.34879 -97.50967 35954 ft 381 kts 272°
2026-05-06 03:01 35.35544 -97.57429 35956 ft 381 kts 271°
2026-05-06 03:01 35.35880 -97.63850 35955 ft 377 kts 265°
2026-05-06 03:02 35.35774 -97.70247 35954 ft 377 kts 265°
2026-05-06 03:02 35.35671 -97.76664 35949 ft 378 kts 265°
2026-05-06 03:03 35.35568 -97.83115 35950 ft 378 kts 265°
2026-05-06 03:03 35.35465 -97.89544 35944 ft 378 kts 265°
2026-05-06 03:04 35.35358 -97.96016 35957 ft 378 kts 265°
2026-05-06 03:04 35.35248 -98.02456 35963 ft 379 kts 264°
2026-05-06 03:05 35.35135 -98.08883 35964 ft 378 kts 264°
2026-05-06 03:05 35.35019 -98.15319 35947 ft 378 kts 264°
2026-05-06 03:06 35.34898 -98.21785 35942 ft 378 kts 264°
2026-05-06 03:06 35.34775 -98.28203 35938 ft 378 kts 264°
2026-05-06 03:07 35.34648 -98.34635 35923 ft 378 kts 264°
2026-05-06 03:07 35.34517 -98.41102 35922 ft 378 kts 264°
2026-05-06 03:08 35.34384 -98.47524 35946 ft 378 kts 264°
2026-05-06 03:08 35.34248 -98.53945 35950 ft 378 kts 264°
2026-05-06 03:09 35.34106 -98.60401 35953 ft 378 kts 264°
2026-05-06 03:09 35.33963 -98.66814 35955 ft 378 kts 264°
2026-05-06 03:10 35.33816 -98.73230 35966 ft 378 kts 264°
2026-05-06 03:10 35.33665 -98.79695 35913 ft 378 kts 264°
2026-05-06 03:11 35.33512 -98.86124 35924 ft 379 kts 264°
2026-05-06 03:11 35.33417 -98.90037 35918 ft 379 kts 264°
2026-05-06 03:12 35.33322 -98.93958 35910 ft 379 kts 264°
2026-05-06 03:12 35.33164 -99.00400 35955 ft 379 kts 264°
2026-05-06 03:13 35.33003 -99.06845 35969 ft 379 kts 264°
2026-05-06 03:13 35.32838 -99.13314 35976 ft 379 kts 263°
2026-05-06 03:14 35.32670 -99.19764 35974 ft 379 kts 263°
2026-05-06 03:14 35.32498 -99.26243 35977 ft 379 kts 263°
2026-05-06 03:15 35.32323 -99.32682 35968 ft 380 kts 263°
2026-05-06 03:15 35.32144 -99.39136 35946 ft 380 kts 263°
2026-05-06 03:16 35.31962 -99.45597 35951 ft 379 kts 263°
2026-05-06 03:16 35.31777 -99.52049 35957 ft 380 kts 263°
2026-05-06 03:17 35.31588 -99.58495 35942 ft 379 kts 263°
2026-05-06 03:17 35.31395 -99.64979 35937 ft 379 kts 263°
2026-05-06 03:18 35.31200 -99.71411 35931 ft 379 kts 263°
2026-05-06 03:18 35.31001 -99.77847 35927 ft 379 kts 263°
2026-05-06 03:19 35.30800 -99.84262 35939 ft 378 kts 263°
2026-05-06 03:19 35.30594 -99.90713 35927 ft 378 kts 263°
2026-05-06 03:20 35.30279 -100.00355 35925 ft 378 kts 263°
2026-05-06 03:20 35.30066 -100.06765 35927 ft 378 kts 263°
2026-05-06 03:21 35.29849 -100.13186 35929 ft 378 kts 263°
2026-05-06 03:21 35.29628 -100.19639 35928 ft 378 kts 263°
2026-05-06 03:22 35.29404 -100.26064 35928 ft 378 kts 262°
2026-05-06 03:22 35.29177 -100.32482 35928 ft 378 kts 262°
2026-05-06 03:23 35.28945 -100.38937 35937 ft 378 kts 262°
2026-05-06 03:23 35.28713 -100.45328 35932 ft 378 kts 262°
2026-05-06 03:24 35.28474 -100.51776 35928 ft 378 kts 262°
2026-05-06 03:24 35.28233 -100.58185 35912 ft 379 kts 262°
2026-05-06 03:25 35.27987 -100.64646 35926 ft 379 kts 262°
2026-05-06 03:25 35.27739 -100.71082 35923 ft 379 kts 262°
2026-05-06 03:26 35.27487 -100.77519 35932 ft 380 kts 262°
2026-05-06 03:26 35.27232 -100.83985 35929 ft 379 kts 262°
2026-05-06 03:27 35.26974 -100.90409 35923 ft 378 kts 262°
2026-05-06 03:27 35.26713 -100.96828 35925 ft 378 kts 262°
2026-05-06 03:28 35.26448 -101.03239 35926 ft 377 kts 262°
2026-05-06 03:28 35.26180 -101.09670 35922 ft 377 kts 262°
2026-05-06 03:29 35.25908 -101.16082 35918 ft 377 kts 262°
2026-05-06 03:29 35.25635 -101.22463 35917 ft 377 kts 262°
2026-05-06 03:30 35.25358 -101.28852 35925 ft 377 kts 262°
2026-05-06 03:30 35.25076 -101.35288 35930 ft 378 kts 262°
2026-05-06 03:31 35.24790 -101.41711 35939 ft 378 kts 262°
2026-05-06 03:31 35.24503 -101.48101 35947 ft 378 kts 262°
2026-05-06 03:32 35.24211 -101.54533 35956 ft 379 kts 262°
2026-05-06 03:32 35.23915 -101.60983 35963 ft 379 kts 262°
2026-05-06 03:33 35.23618 -101.67377 35965 ft 379 kts 262°
2026-05-06 03:33 35.23367 -101.73822 35962 ft 380 kts 263°
2026-05-06 03:34 35.23224 -101.80300 35963 ft 380 kts 263°
2026-05-06 03:34 35.23086 -101.86770 35952 ft 380 kts 263°
2026-05-06 03:35 35.22936 -101.93193 35938 ft 380 kts 263°
2026-05-06 03:35 35.22776 -101.99653 35924 ft 380 kts 263°
2026-05-06 03:36 35.22611 -102.06079 35923 ft 379 kts 263°
2026-05-06 03:36 35.22440 -102.12542 35887 ft 379 kts 263°
2026-05-06 03:37 35.22268 -102.18976 35882 ft 379 kts 263°
2026-05-06 03:37 35.22093 -102.25396 35889 ft 379 kts 262°
2026-05-06 03:38 35.21913 -102.31823 35884 ft 379 kts 262°
2026-05-06 03:38 35.21730 -102.38276 35887 ft 378 kts 262°
2026-05-06 03:39 35.21544 -102.44717 35894 ft 379 kts 262°
2026-05-06 03:39 35.21355 -102.51116 35877 ft 379 kts 262°
2026-05-06 03:40 35.21161 -102.57578 35877 ft 379 kts 262°
2026-05-06 03:40 35.20966 -102.63974 35872 ft 379 kts 262°
2026-05-06 03:41 35.20766 -102.70401 35872 ft 379 kts 262°
2026-05-06 03:41 35.20563 -102.76832 35872 ft 379 kts 262°
2026-05-06 03:42 35.20357 -102.83256 35875 ft 378 kts 262°
2026-05-06 03:42 35.20147 -102.89682 35861 ft 378 kts 262°
2026-05-06 03:43 35.19933 -102.96133 35852 ft 378 kts 262°
2026-05-06 03:43 35.19718 -103.02531 35854 ft 377 kts 262°
2026-05-06 03:44 35.19499 -103.08916 35838 ft 377 kts 262°
2026-05-06 03:44 35.19276 -103.15339 35857 ft 377 kts 261°
2026-05-06 03:45 35.19051 -103.21702 35847 ft 377 kts 261°
2026-05-06 03:45 35.18821 -103.28125 35851 ft 378 kts 261°
2026-05-06 03:46 35.18587 -103.34552 35869 ft 378 kts 261°
2026-05-06 03:46 35.18350 -103.40970 35879 ft 378 kts 261°
2026-05-06 03:47 35.18112 -103.47359 35893 ft 378 kts 261°
2026-05-06 03:47 35.17868 -103.53782 35903 ft 378 kts 261°
2026-05-06 03:48 35.17619 -103.60245 35897 ft 379 kts 261°
2026-05-06 03:48 35.17369 -103.66644 35895 ft 379 kts 261°
2026-05-06 03:49 35.17115 -103.73084 35890 ft 379 kts 261°
2026-05-06 03:49 35.16856 -103.79551 35870 ft 379 kts 261°
2026-05-06 03:50 35.16595 -103.85987 35852 ft 379 kts 260°
2026-05-06 03:50 35.16330 -103.92388 35829 ft 380 kts 261°
2026-05-06 03:51 35.16061 -103.98854 35794 ft 381 kts 261°
2026-05-06 03:51 35.15789 -104.05335 35775 ft 382 kts 261°
2026-05-06 03:52 35.15510 -104.11827 35767 ft 382 kts 260°
2026-05-06 03:52 35.15231 -104.18317 35767 ft 382 kts 260°
2026-05-06 03:53 35.14948 -104.24799 35747 ft 382 kts 260°
2026-05-06 03:53 35.14661 -104.31248 35763 ft 383 kts 260°
2026-05-06 03:54 35.14369 -104.37753 35789 ft 383 kts 260°
2026-05-06 03:54 35.14073 -104.44273 35816 ft 384 kts 260°
2026-05-06 03:55 35.13775 -104.50755 35842 ft 384 kts 260°
2026-05-06 03:55 35.13472 -104.57286 35855 ft 384 kts 260°
2026-05-06 03:56 35.13168 -104.63763 35871 ft 384 kts 260°
2026-05-06 03:56 35.12858 -104.70280 35864 ft 384 kts 260°
2026-05-06 03:57 35.12545 -104.76793 35856 ft 383 kts 260°
2026-05-06 03:57 35.12229 -104.83282 35835 ft 383 kts 260°
2026-05-06 03:58 35.11911 -104.89753 35816 ft 383 kts 260°
2026-05-06 03:58 35.11589 -104.96249 35792 ft 383 kts 260°
2026-05-06 03:59 35.11262 -105.02765 35774 ft 385 kts 260°
2026-05-06 03:59 35.10996 -105.09332 35783 ft 388 kts 261°
2026-05-06 04:00 35.10802 -105.15910 35788 ft 389 kts 261°
2026-05-06 04:00 35.10603 -105.22515 35806 ft 390 kts 261°
2026-05-06 04:01 35.10391 -105.29160 35824 ft 390 kts 261°
2026-05-06 04:01 35.10173 -105.35738 35810 ft 390 kts 261°
2026-05-06 04:02 35.09948 -105.42365 35826 ft 391 kts 261°
2026-05-06 04:02 35.09725 -105.48982 35837 ft 390 kts 261°
2026-05-06 04:03 35.09491 -105.55601 35851 ft 390 kts 261°
2026-05-06 04:03 35.09256 -105.62193 35848 ft 390 kts 261°
2026-05-06 04:04 35.09019 -105.68806 35873 ft 390 kts 261°
2026-05-06 04:04 35.08816 -105.74325 35855 ft 390 kts 261°
2026-05-06 04:05 35.08570 -105.80953 35852 ft 389 kts 261°
2026-05-06 04:05 35.08323 -105.87553 35853 ft 389 kts 261°
2026-05-06 04:06 35.08072 -105.94123 35864 ft 388 kts 261°
2026-05-06 04:06 35.07818 -106.00696 35892 ft 388 kts 261°
2026-05-06 04:07 35.07559 -106.07314 35868 ft 388 kts 261°
2026-05-06 04:07 35.07298 -106.13867 35867 ft 388 kts 261°
2026-05-06 04:08 35.07033 -106.20458 35876 ft 388 kts 261°
2026-05-06 04:08 35.06763 -106.27063 35905 ft 388 kts 261°
2026-05-06 04:09 35.06492 -106.33598 35942 ft 388 kts 261°
2026-05-06 04:09 35.06215 -106.40208 35975 ft 389 kts 261°
2026-05-06 04:10 35.05936 -106.46806 35997 ft 389 kts 261°
2026-05-06 04:10 35.05652 -106.53387 36024 ft 388 kts 261°
2026-05-06 04:11 35.05366 -106.59972 36016 ft 388 kts 261°
2026-05-06 04:11 35.05077 -106.66524 36017 ft 388 kts 260°
2026-05-06 04:12 35.04783 -106.73130 35999 ft 388 kts 260°
2026-05-06 04:12 35.04485 -106.79730 36026 ft 389 kts 260°
2026-05-06 04:13 35.04245 -106.86307 36018 ft 392 kts 261°
2026-05-06 04:13 35.04167 -106.89659 35823 ft 393 kts 262°
2026-05-06 04:13 35.04095 -106.92972 35818 ft 393 kts 262°
2026-05-06 04:14 35.03946 -106.99658 35839 ft 394 kts 261°
2026-05-06 04:14 35.03782 -107.06363 35801 ft 396 kts 261°
2026-05-06 04:15 35.03608 -107.13103 35828 ft 398 kts 261°
2026-05-06 04:15 35.03429 -107.19853 35846 ft 400 kts 261°
2026-05-06 04:16 35.03244 -107.26645 35846 ft 402 kts 261°
2026-05-06 04:16 35.03055 -107.33460 35853 ft 402 kts 262°
2026-05-06 04:17 35.02862 -107.40305 35872 ft 402 kts 262°
2026-05-06 04:17 35.02667 -107.47112 35861 ft 402 kts 262°
2026-05-06 04:18 35.02468 -107.53912 35858 ft 401 kts 262°
2026-05-06 04:18 35.02265 -107.60697 35880 ft 400 kts 261°
2026-05-06 04:19 35.02057 -107.67494 35879 ft 400 kts 261°
2026-05-06 04:19 35.01847 -107.74257 35881 ft 399 kts 261°
2026-05-06 04:20 35.01633 -107.81019 35902 ft 400 kts 261°
2026-05-06 04:20 35.01414 -107.87793 35900 ft 400 kts 261°
2026-05-06 04:21 35.01192 -107.94603 35906 ft 400 kts 261°
2026-05-06 04:21 35.00967 -108.01347 35903 ft 400 kts 261°
2026-05-06 04:22 35.00737 -108.08152 35910 ft 400 kts 261°
2026-05-06 04:23 35.00387 -108.18272 35920 ft 400 kts 261°
2026-05-06 04:23 35.00148 -108.25051 35923 ft 400 kts 261°
2026-05-06 04:24 34.99905 -108.31858 35924 ft 400 kts 261°
2026-05-06 04:24 34.99658 -108.38639 35921 ft 401 kts 261°
2026-05-06 04:25 34.99407 -108.45425 35954 ft 401 kts 261°
2026-05-06 04:25 34.99152 -108.52236 35927 ft 401 kts 261°
2026-05-06 04:26 34.98895 -108.59021 35922 ft 400 kts 261°
2026-05-06 04:26 34.98634 -108.65770 35933 ft 400 kts 261°
2026-05-06 04:27 34.98485 -108.69589 35922 ft 400 kts 261°
2026-05-06 04:27 34.98229 -108.76082 35917 ft 400 kts 261°
2026-05-06 04:28 34.97958 -108.82844 35928 ft 400 kts 261°
2026-05-06 04:28 34.97681 -108.89650 35916 ft 401 kts 261°
2026-05-06 04:29 34.97403 -108.96431 35913 ft 400 kts 261°
2026-05-06 04:29 34.97121 -109.03212 35905 ft 400 kts 261°
2026-05-06 04:30 34.96835 -109.09988 35906 ft 402 kts 261°
2026-05-06 04:30 34.96533 -109.16835 35920 ft 407 kts 261°
2026-05-06 04:31 34.96095 -109.23751 35900 ft 411 kts 260°
2026-05-06 04:31 34.95612 -109.30705 35896 ft 412 kts 260°
2026-05-06 04:32 34.95138 -109.37635 35902 ft 412 kts 260°
2026-05-06 04:32 34.94667 -109.44586 35893 ft 412 kts 260°
2026-05-06 04:33 34.94195 -109.51537 35901 ft 412 kts 260°
2026-05-06 04:33 34.93717 -109.58525 35899 ft 413 kts 260°
2026-05-06 04:34 34.93236 -109.65497 35899 ft 413 kts 260°
2026-05-06 04:34 34.92753 -109.72447 35910 ft 413 kts 260°
2026-05-06 04:35 34.92264 -109.79405 35899 ft 413 kts 260°
2026-05-06 04:35 34.91768 -109.86411 35907 ft 415 kts 260°
2026-05-06 04:36 34.91264 -109.93456 35906 ft 417 kts 260°
2026-05-06 04:36 34.90758 -110.00496 35904 ft 419 kts 260°
2026-05-06 04:37 34.90247 -110.07556 35910 ft 420 kts 260°
2026-05-06 04:37 34.89729 -110.14639 35924 ft 421 kts 261°
2026-05-06 04:38 34.89203 -110.21782 35917 ft 423 kts 261°
2026-05-06 04:38 34.88674 -110.28910 35912 ft 425 kts 261°
2026-05-06 04:39 34.88134 -110.36118 35916 ft 426 kts 261°
2026-05-06 04:39 34.87594 -110.43284 35916 ft 427 kts 261°
2026-05-06 04:40 34.87048 -110.50464 35928 ft 428 kts 261°
2026-05-06 04:40 34.86492 -110.57690 35917 ft 428 kts 261°
2026-05-06 04:41 34.85932 -110.64905 36007 ft 429 kts 261°
2026-05-06 04:41 34.85365 -110.72174 36013 ft 430 kts 261°
2026-05-06 04:42 34.84795 -110.79417 36005 ft 430 kts 261°
2026-05-06 04:42 34.84223 -110.86624 35999 ft 431 kts 261°
2026-05-06 04:43 34.83640 -110.93927 35977 ft 432 kts 261°
2026-05-06 04:43 34.83057 -111.01175 35968 ft 432 kts 261°
2026-05-06 04:44 34.82468 -111.08440 35955 ft 432 kts 261°
2026-05-06 04:44 34.81872 -111.15739 35944 ft 433 kts 261°
2026-05-06 04:45 34.81271 -111.23039 35949 ft 434 kts 261°
2026-05-06 04:45 34.80667 -111.30330 35947 ft 435 kts 261°
2026-05-06 04:46 34.80053 -111.37681 35939 ft 436 kts 261°
2026-05-06 04:46 34.79436 -111.45007 35937 ft 437 kts 261°
2026-05-06 04:47 34.78813 -111.52373 35952 ft 438 kts 262°
2026-05-06 04:47 34.78182 -111.59759 36027 ft 441 kts 261°
2026-05-06 04:48 34.77542 -111.67188 36042 ft 443 kts 261°
2026-05-06 04:48 34.76894 -111.74683 36055 ft 444 kts 261°
2026-05-06 04:49 34.76243 -111.82151 36052 ft 445 kts 262°
2026-05-06 04:49 34.75584 -111.89647 36047 ft 447 kts 262°
2026-05-06 04:50 34.74920 -111.97152 36010 ft 448 kts 262°
2026-05-06 04:50 34.74250 -112.04676 35977 ft 448 kts 262°
2026-05-06 04:51 34.73577 -112.12185 35958 ft 448 kts 262°
2026-05-06 04:51 34.72892 -112.19736 35998 ft 448 kts 262°
2026-05-06 04:52 34.72208 -112.27286 36024 ft 450 kts 262°
2026-05-06 04:52 34.71517 -112.34831 36058 ft 451 kts 262°
2026-05-06 04:53 34.70936 -112.41145 36058 ft 451 kts 262°
2026-05-06 04:53 34.70213 -112.48714 36051 ft 452 kts 260°
2026-05-06 04:53 34.69717 -112.52500 35904 ft 452 kts 259°
2026-05-06 04:54 34.69190 -112.56239 35908 ft 453 kts 259°
2026-05-06 04:54 34.68091 -112.63817 35906 ft 454 kts 259°
2026-05-06 04:55 34.67004 -112.71344 35899 ft 454 kts 259°
2026-05-06 04:55 34.65920 -112.78911 35903 ft 455 kts 259°
2026-05-06 04:56 34.64836 -112.86484 35897 ft 456 kts 259°
2026-05-06 04:56 34.63746 -112.94065 35891 ft 457 kts 259°
2026-05-06 04:57 34.62649 -113.01661 35895 ft 457 kts 259°
2026-05-06 04:57 34.61547 -113.09253 35901 ft 457 kts 259°
2026-05-06 04:58 34.60442 -113.16830 35895 ft 458 kts 259°
2026-05-06 04:58 34.59320 -113.24493 35889 ft 459 kts 259°
2026-05-06 04:59 34.58197 -113.32122 35891 ft 460 kts 259°
2026-05-06 04:59 34.57069 -113.39753 35884 ft 461 kts 259°
2026-05-06 05:00 34.55932 -113.47411 35880 ft 461 kts 259°
2026-05-06 05:00 34.54795 -113.55034 35887 ft 462 kts 259°
2026-05-06 05:01 34.53648 -113.62697 35881 ft 462 kts 259°
2026-05-06 05:01 34.52493 -113.70376 35880 ft 462 kts 259°
2026-05-06 05:02 34.51340 -113.77998 35873 ft 462 kts 259°
2026-05-06 05:02 34.50173 -113.85692 35878 ft 463 kts 259°
2026-05-06 05:03 34.49002 -113.93368 35875 ft 464 kts 259°
2026-05-06 05:03 34.47826 -114.01050 35889 ft 464 kts 259°
2026-05-06 05:04 34.46646 -114.08720 35898 ft 465 kts 259°
2026-05-06 05:04 34.45453 -114.16447 35919 ft 465 kts 259°
2026-05-06 05:05 34.44263 -114.24116 35867 ft 466 kts 259°
2026-05-06 05:05 34.43058 -114.31853 35865 ft 466 kts 259°
2026-05-06 05:06 34.41857 -114.39527 35871 ft 466 kts 259°
2026-05-06 05:06 34.40637 -114.47283 35869 ft 467 kts 259°
2026-05-06 05:07 34.39421 -114.54992 35877 ft 468 kts 259°
2026-05-06 05:07 34.38192 -114.62745 35877 ft 469 kts 259°
2026-05-06 05:08 34.36956 -114.70511 35884 ft 470 kts 259°
2026-05-06 05:08 34.35714 -114.78280 35888 ft 470 kts 259°
2026-05-06 05:09 34.34465 -114.86062 35886 ft 470 kts 259°
2026-05-06 05:09 34.33213 -114.93823 35891 ft 471 kts 259°
2026-05-06 05:10 34.31964 -115.01539 35889 ft 471 kts 259°
2026-05-06 05:10 34.30691 -115.09374 35889 ft 473 kts 259°
2026-05-06 05:11 34.29420 -115.17156 35897 ft 475 kts 259°
2026-05-06 05:11 34.28131 -115.25015 35899 ft 477 kts 259°
2026-05-06 05:12 34.26830 -115.32916 35902 ft 479 kts 259°
2026-05-06 05:12 34.25528 -115.40797 35903 ft 481 kts 259°
2026-05-06 05:13 34.24205 -115.48762 35908 ft 483 kts 259°
2026-05-06 05:13 34.22876 -115.56736 35917 ft 484 kts 259°
2026-05-06 05:14 34.21539 -115.64719 35915 ft 485 kts 259°
2026-05-06 05:14 34.20205 -115.72654 35914 ft 479 kts 259°
2026-05-06 05:15 34.18889 -115.80445 35944 ft 474 kts 259°
2026-05-06 05:15 34.17568 -115.88243 35980 ft 475 kts 259°
2026-05-06 05:15 34.16895 -115.92206 35715 ft 483 kts 259°
2026-05-06 05:16 34.16221 -115.96165 35003 ft 481 kts 259°
2026-05-06 05:16 34.15542 -116.00139 34272 ft 482 kts 259°
2026-05-06 05:16 34.14859 -116.04131 33315 ft 486 kts 260°
2026-05-06 05:16 34.14174 -116.08134 32359 ft 492 kts 260°
2026-05-06 05:17 34.13479 -116.12181 31397 ft 500 kts 261°
2026-05-06 05:17 34.12766 -116.16336 30510 ft 512 kts 261°
2026-05-06 05:17 34.12027 -116.20628 29765 ft 528 kts 261°
2026-05-06 05:17 34.11275 -116.24983 28905 ft 533 kts 261°
2026-05-06 05:18 34.10511 -116.29383 28066 ft 529 kts 261°
2026-05-06 05:18 34.09874 -116.33695 27360 ft 521 kts 264°
2026-05-06 05:18 34.09415 -116.37969 26646 ft 513 kts 266°
2026-05-06 05:18 34.09021 -116.42249 25941 ft 507 kts 266°
2026-05-06 05:19 34.08633 -116.46414 25260 ft 502 kts 265°
2026-05-06 05:19 34.08217 -116.50517 24888 ft 476 kts 265°
2026-05-06 05:19 34.07804 -116.54343 24688 ft 448 kts 265°
2026-05-06 05:19 34.07405 -116.57982 24494 ft 422 kts 265°
2026-05-06 05:20 34.07045 -116.61434 24110 ft 412 kts 266°
2026-05-06 05:20 34.06730 -116.64825 23647 ft 411 kts 266°
2026-05-06 05:20 34.06423 -116.68261 23103 ft 410 kts 266°
2026-05-06 05:20 34.06118 -116.71668 22512 ft 410 kts 266°
2026-05-06 05:21 34.05804 -116.75097 21923 ft 411 kts 266°
2026-05-06 05:21 34.05489 -116.78489 21393 ft 409 kts 265°
2026-05-06 05:21 34.05168 -116.81913 20923 ft 405 kts 265°
2026-05-06 05:21 34.04854 -116.85242 20638 ft 396 kts 265°
2026-05-06 05:22 34.04543 -116.88527 20651 ft 392 kts 265°
2026-05-06 05:22 34.04186 -116.91784 20057 ft 401 kts 263°
2026-05-06 05:22 34.03734 -116.95086 19471 ft 390 kts 263°
2026-05-06 05:22 34.03299 -116.98241 19008 ft 378 kts 263°
2026-05-06 05:23 34.02885 -117.01378 18592 ft 375 kts 263°
2026-05-06 05:23 34.02492 -117.04459 18135 ft 373 kts 264°
2026-05-06 05:23 34.01771 -117.10587 17157 ft 368 kts 264°
2026-05-06 05:24 34.01413 -117.13657 16704 ft 366 kts 264°
2026-05-06 05:24 34.01054 -117.16702 16248 ft 363 kts 264°
2026-05-06 05:24 34.00699 -117.19685 15883 ft 361 kts 264°
2026-05-06 05:24 34.00344 -117.22654 15452 ft 358 kts 264°
2026-05-06 05:25 33.99991 -117.25603 15041 ft 355 kts 264°
2026-05-06 05:25 33.99638 -117.28535 14602 ft 353 kts 264°
2026-05-06 05:25 33.99285 -117.31474 14173 ft 350 kts 264°
2026-05-06 05:25 33.98944 -117.34369 13665 ft 349 kts 264°
2026-05-06 05:26 33.98607 -117.37258 13159 ft 348 kts 264°
2026-05-06 05:26 33.98272 -117.40118 12669 ft 347 kts 264°
2026-05-06 05:26 33.97931 -117.43013 12181 ft 346 kts 264°
2026-05-06 05:26 33.97593 -117.45880 11716 ft 342 kts 264°
2026-05-06 05:27 33.97265 -117.48634 11159 ft 323 kts 265°
2026-05-06 05:27 33.97075 -117.51315 10528 ft 325 kts 270°
2026-05-06 05:27 33.97031 -117.53990 10128 ft 315 kts 272°
2026-05-06 05:27 33.97017 -117.56601 9602 ft 305 kts 272°
2026-05-06 05:28 33.97004 -117.59095 9094 ft 296 kts 272°
2026-05-06 05:28 33.96984 -117.61563 8504 ft 290 kts 271°
2026-05-06 05:28 33.96958 -117.63954 7965 ft 283 kts 270°
2026-05-06 05:28 33.96927 -117.66223 7674 ft 260 kts 270°
2026-05-06 05:29 33.96895 -117.68339 7288 ft 244 kts 270°
2026-05-06 05:29 33.96864 -117.70319 6820 ft 233 kts 269°
2026-05-06 05:29 33.96833 -117.72227 6313 ft 225 kts 269°
2026-05-06 05:29 33.96801 -117.74093 5687 ft 222 kts 269°
2026-05-06 05:30 33.96769 -117.75959 4995 ft 222 kts 269°
2026-05-06 05:30 33.96736 -117.77853 4253 ft 228 kts 269°
2026-05-06 05:30 33.96701 -117.79732 3848 ft 216 kts 269°
2026-05-06 05:30 33.96669 -117.81495 3739 ft 212 kts 268°
2026-05-06 05:31 33.96637 -117.83313 3710 ft 220 kts 269°
2026-05-06 05:31 33.96601 -117.85146 3650 ft 221 kts 269°
2026-05-06 05:31 33.96567 -117.86939 3511 ft 205 kts 268°
2026-05-06 05:31 33.96535 -117.88598 3507 ft 196 kts 268°
2026-05-06 05:32 33.96503 -117.90253 3463 ft 197 kts 268°
2026-05-06 05:32 33.96471 -117.91903 3388 ft 196 kts 268°
2026-05-06 05:32 33.96439 -117.93528 3298 ft 195 kts 268°
2026-05-06 05:32 33.96407 -117.95158 3298 ft 194 kts 268°
2026-05-06 05:33 33.96374 -117.96800 3293 ft 195 kts 268°
2026-05-06 05:33 33.96342 -117.98390 3282 ft 189 kts 268°
2026-05-06 05:33 33.96311 -117.99965 3271 ft 186 kts 268°
2026-05-06 05:33 33.96279 -118.01525 3274 ft 185 kts 268°
2026-05-06 05:34 33.96248 -118.03069 3289 ft 185 kts 268°
2026-05-06 05:34 33.96216 -118.04605 3288 ft 186 kts 268°
2026-05-06 05:34 33.96184 -118.06177 3287 ft 186 kts 268°
2026-05-06 05:34 33.96152 -118.07723 3280 ft 186 kts 268°
2026-05-06 05:35 33.96120 -118.09290 3242 ft 184 kts 268°
2026-05-06 05:35 33.96087 -118.10837 2983 ft 187 kts 268°
2026-05-06 05:35 33.96054 -118.12386 2810 ft 187 kts 268°
2026-05-06 05:35 33.96039 -118.13962 2678 ft 187 kts 269°
2026-05-06 05:36 33.96009 -118.15516 2479 ft 187 kts 266°
2026-05-06 05:36 33.95900 -118.17075 2354 ft 184 kts 263°
2026-05-06 05:36 33.95757 -118.18598 2302 ft 183 kts 263°
2026-05-06 05:36 33.95604 -118.20124 2188 ft 183 kts 262°
2026-05-06 05:37 33.95448 -118.21645 2126 ft 183 kts 262°
2026-05-06 05:37 33.95290 -118.23180 2040 ft 183 kts 262°
2026-05-06 05:37 33.95134 -118.24690 1973 ft 183 kts 262°
2026-05-06 05:37 33.94977 -118.26218 1911 ft 183 kts 262°
2026-05-06 05:38 33.94826 -118.27695 1880 ft 170 kts 262°
2026-05-06 05:38 33.94686 -118.29060 1765 ft 157 kts 261°
2026-05-06 05:38 33.94544 -118.30305 1533 ft 143 kts 261°
2026-05-06 05:38 33.94427 -118.31489 1277 ft 143 kts 263°
2026-05-06 05:39 33.94317 -118.32663 1075 ft 140 kts 261°
2026-05-06 05:39 33.94193 -118.33812 921 ft 137 kts 261°
2026-05-06 05:39 33.94075 -118.34966 709 ft 138 kts 263°
2026-05-06 05:39 33.93958 -118.36109 514 ft 138 kts 263°
2026-05-06 05:40 33.93841 -118.37268 306 ft 139 kts 263°
2026-05-06 05:40 33.93725 -118.38398 124 ft 136 kts 262°
2026-05-06 05:40 33.93608 -118.39510 101 ft 125 kts 263°
2026-05-06 05:40 33.93532 -118.40288 99 ft 66 kts 262°
2026-05-06 05:41 33.93472 -118.40845 99 ft 66 kts 263°
2026-05-06 05:41 33.93437 -118.41198 102 ft 62 kts 264°
2026-05-06 05:41 33.93377 -118.41741 101 ft 30 kts 264°
2026-05-06 05:41 33.93311 -118.41822 99 ft 20 kts 173°
2026-05-06 05:42 33.93265 -118.41704 98 ft 17 kts 81°
2026-05-06 05:42 33.93277 -118.41563 100 ft 17 kts 84°
2026-05-06 05:42 33.93297 -118.41375 98 ft 17 kts 85°
2026-05-06 05:42 33.93306 -118.41279 102 ft 17 kts 83°
2026-05-06 05:43 33.93320 -118.41139 102 ft 17 kts 83°
2026-05-06 05:43 33.93336 -118.40997 100 ft 17 kts 83°
2026-05-06 05:43 33.93349 -118.40857 98 ft 17 kts 83°
2026-05-06 05:43 33.93363 -118.40715 102 ft 17 kts 82°
2026-05-06 05:44 33.93379 -118.40573 100 ft 17 kts 82°
2026-05-06 05:44 33.93393 -118.40433 101 ft 17 kts 83°
2026-05-06 05:44 33.93406 -118.40291 98 ft 17 kts 84°
2026-05-06 05:44 33.93420 -118.40150 98 ft 17 kts 83°
2026-05-06 05:45 33.93436 -118.40009 101 ft 17 kts 82°
2026-05-06 05:45 33.93451 -118.39867 98 ft 17 kts 84°
2026-05-06 05:45 33.93465 -118.39725 100 ft 17 kts 83°
2026-05-06 05:45 33.93480 -118.39581 99 ft 17 kts 83°
2026-05-06 05:46 33.93494 -118.39440 100 ft 17 kts 84°
2026-05-06 05:46 33.93506 -118.39325 99 ft 0 kts 83°
2026-05-06 05:47 33.93506 -118.39324 99 ft 0 kts 82°
2026-05-06 05:47 33.93507 -118.39314 99 ft 2 kts 82°
2026-05-06 05:48 33.93510 -118.39285 100 ft 5 kts 83°
2026-05-06 05:48 33.93515 -118.39236 98 ft 9 kts 83°
2026-05-06 05:48 33.93530 -118.39099 99 ft 20 kts 82°
2026-05-06 05:48 33.93545 -118.38933 98 ft 19 kts 84°
2026-05-06 05:49 33.93528 -118.38805 98 ft 13 kts 145°
2026-05-06 05:49 33.93479 -118.38739 98 ft 8 kts 118°
2026-05-06 05:49 33.93467 -118.38724 98 ft 0 kts 140°
2026-05-06 05:49 33.93459 -118.38720 99 ft 2 kts 154°
2026-05-06 05:50 33.93439 -118.38710 99 ft 0 kts 167°
2026-05-06 05:50 33.93426 -118.38708 99 ft 3 kts 173°
2026-05-06 05:50 33.93418 -118.38707 97 ft 0 kts 172°
2026-05-06 05:50 33.93416 -118.38707 97 ft 0 kts 172°
2026-05-06 05:51 33.93415 -118.38707 97 ft 0 kts 172°